This demonstration page uses our WeatherBlox Daily Observations layout. Learn more.

Left ArrowRight Arrow

39.08367, -84.50855

Hourly Observations for January 22, 2015

Temp ( °F °C ) Dew Point ( °F °C ) Humidity (%) Winds ( mph kmh ) Pressure ( in mb ) Visibility ( mi km ) Precip ( " mm )
12:53 am 00:53 Cloudy 37 2.8 29 -1.7 73 73 VRB 6 9 30.24 1024 10 16.0934 0 0
1:53 am 01:53 Cloudy 37 2.8 29 -1.7 73 73 undefined N/A 30.25 1025 10 16.0934 0 0
2:53 am 02:53 Cloudy 36 2.2 29 -1.7 76 76 W 6 9 30.27 1025 10 16.0934 0 0
3:00 am 03:00 Cloudy 36 2 28 -2 75 75 WNW 3 6 30.3 1026 10 16.0934 0 0
3:24 am 03:24 Cloudy 37 3 30 -1 75 75 WNW 6 9 30.27 1025 10 16.0934 0 0
3:53 am 03:53 Cloudy 37 2.8 30 -1.1 76 76 NW 6 9 30.28 1026 10 16.0934 0 0
4:27 am 04:27 Cloudy 36 2 30 -1 81 81 NNW 6 9 30.33 1027 10 16.0934 0 0
4:53 am 04:53 Cloudy 36 2.2 30 -1.1 79 79 NW 3 6 30.31 1026 10 16.0934 0 0
5:06 am 05:06 Cloudy 36 2 30 -1 81 81 NW 6 9 30.33 1027 10 16.0934 0 0
5:53 am 05:53 Cloudy 36 2.2 30 -1.1 79 79 WNW 6 9 30.33 1027 10 16.0934 0 0
6:15 am 06:15 Cloudy 36 2.2 28 -2.2 73 73 NNW 7 11 30.36 1028 10 16.0934 0 0
6:45 am 06:45 Cloudy 35 1.7 29 -1.7 78 78 N 6 9 30.39 1029 10 16.0934 0 0
6:53 am 06:53 Cloudy 35 1.7 29 -1.7 78 78 N 9 15 30.36 1028 10 16.0934 0 0
7:53 am 07:53 Cloudy 35 1.7 28 -2.2 76 76 NNW 9 15 30.39 1029 10 16.0934 0 0
8:53 am 08:53 Cloudy 35 1.7 27 -2.8 72 72 NNW 7 11 30.41 1030 10 16.0934 0 0
9:53 am 09:53 Cloudy 35 1.7 26 -3.3 70 70 VRB 6 9 30.44 1031 10 16.0934 0 0
10:53 am 10:53 Cloudy 35 1.7 26 -3.3 70 70 N 7 11 30.45 1031 10 16.0934 0 0
11:53 am 11:53 Cloudy 35 1.7 26 -3.3 70 70 N 5 7 30.44 1031 10 16.0934 0 0
12:53 pm 12:53 Cloudy 35 1.7 25 -3.9 67 67 W 5 7 30.44 1031 10 16.0934 0 0
1:53 pm 13:53 Cloudy 35 1.7 25 -3.9 67 67 WNW 3 6 30.45 1031 10 16.0934 0 0
2:53 pm 14:53 Cloudy 36 2.2 25 -3.9 64 64 NNW 5 7 30.44 1031 10 16.0934 0 0
3:53 pm 15:53 Cloudy 36 2.2 25 -3.9 64 64 NNE 3 6 30.45 1031 10 16.0934 0 0
4:53 pm 16:53 Cloudy 35 1.7 25 -3.9 67 67 N 6 9 30.46 1031 10 16.0934 0 0
5:53 pm 17:53 Cloudy 34 1.1 26 -3.3 73 73 NNE 5 7 30.45 1031 10 16.0934 0 0
6:53 pm 18:53 Cloudy 34 1.1 26 -3.3 73 73 E 6 9 30.46 1032 10 16.0934 0 0
7:53 pm 19:53 Cloudy 34 1.1 26 -3.3 73 73 E 3 6 30.47 1032 10 16.0934 0 0
8:53 pm 20:53 Cloudy 34 1.1 26 -3.3 73 73 ENE 3 6 30.45 1031 10 16.0934 0 0
9:53 pm 21:53 Cloudy 34 1.1 26 -3.3 73 73 E 6 9 30.44 1031 10 16.0934 0 0
10:53 pm 22:53 Cloudy 33 0.6 26 -3.3 75 75 ENE 6 9 30.44 1031 10 16.0934 0 0
11:53 pm 23:53 Cloudy 33 0.6 25 -3.9 72 72 ESE 3 6 30.44 1031 10 16.0934 0 0

Powered by AerisWeather